Location: Treviso
(45.6669°N, 12.2430°E)
Time: 19:29:58
(UTC+01:00)

Envisat - Pass Details

Date: 09 December 2022
Orbit: 763 x 765 km, 98.2° (Epoch: 06 February)

Event Time Altitude Azimuth Distance (km) Brightness Sun altitude
Rises 04:55:30 0° 9° (N) 3,244 6.3 -27.7°
Reaches altitude 10° 04:57:50 10° 5° (N) 2,314 5.5 -27.3°
Enters shadow 04:58:33 14° 3° (N) 2,039 5.2 -27.2°
